Starlink 1153

operational
NORAD ID: 45080 Int'l Des: 2020-006 Owner: SPXS Country: US Constellation: starlink
LEOCIRCULARSTARLINK_TYPE

Starlink 1153について

説明を読み込み中...

リアルタイム位置

3D地球を読み込み中...

次回通過

高度履歴

Altitude vs Time

uPlot chart will show altitude changes over time

軌道要素

1 45080U 20006AN 25306.46263904 -.00000737 00000-0 -30617-4 0 9995
2 45080 53.0524 117.7616 0001594 90.4767 269.6405 15.06396075317565
Epoch: Nov 2, 2025 • Age: 11 hours

現在のステータス

高度 550.1 km
速度 7.59 km/s
衛星直下点 -9.49°S, 93.11°E
打ち上げ日 Jan 29, 2020
運用期間 5.7 years
タイプ internet

技術仕様

分類 Payload
質量 260.00 kg
乾燥質量 248.00 kg
総質量 260.00 kg
長さ 0.20 m
直径 2.80 m
スパン 9.00 m
形状 Box + pan
製造者 SPXS
バスタイプ Starlink
フェーズステータス In Orbit
所有者/国 SPXS/US

大規模コンステレーション

Loading constellations...